Location: El Carrer d�Abaix
(41.5797°N, 2.1791°E)
Time: 00:53:18
(UTC+00:00)

ATLAS CENTAUR R/B - Pass Details

Date: 06 June 2020
Orbit: 220 x 6250 km, 57.3° (Epoch: 11 July)

Event Time Altitude Azimuth Distance (km) Brightness Sun altitude
Rises 23:28:30 0° 328° (NNW) 1,877 5.6 -25.4°
Reaches altitude 10° 23:30:04 10° 343° (NNW) 1,238 4.6 -25.5°
Enters shadow 23:31:37 25° 22° (NNE) 866 3.4 -25.5°
